{"data":{"norad_id":68478,"intl_designator":"2026-067BQ","name":"FOSSASAT-2E25","alt_names":[],"object_type":"PAYLOAD","status":"ACTIVE","operator":null,"country":"SPN","launch_date":"2026-03-30","launch_site_code":"AFWTR","launch_vehicle":null,"mission":null,"orbit_class":"UNKNOWN","rcs_meters":null,"size_class":null,"mass_kg":null,"dimensions":null,"purposes":[],"wikipedia_slug":null,"has_3d_model":false,"image_url":null,"decayed_at":null,"tle_current":{"epoch":"2026-05-24T19:51:56.602944Z","epoch_age_seconds":83784,"freshness":"FRESH","line1":"1 68478U 26067BQ  26144.82773846  .00000928  00000+0  96795-4 0  9994","line2":"2 68478  97.7587 103.4718 0002628  40.4467 319.6947 14.92093163  8246","mean_motion":14.92093163,"eccentricity":0.0002628,"inclination_deg":97.7587,"raan_deg":103.4718,"arg_perigee_deg":40.4467,"mean_anomaly_deg":319.6947,"bstar":9.6795e-5,"rev_number":824,"period_min":96.508719140884,"perigee_km":589.57834829741,"apogee_km":593.24154217182,"semimajor_km":6969.5469452346,"source":"CELESTRAK","updated_at":"2026-05-25T13:38:07.851073Z"}}}